Location: Cossonay
(46.5833°N, 6.4167°E)
Time: 23:58:43
(UTC+00:00)

IDEFIX/ARIANE 42P - Pass Details

Date: 07 June 2020
Orbit: 785 x 803 km, 98.4° (Epoch: 11 July)

Event Time Altitude Azimuth Distance (km) Brightness Sun altitude
Rises 02:46:13 0° 15° (NNE) 3,325 7.0 -8.1°
Reaches altitude 10° 02:48:35 10° 18° (NNE) 2,388 6.2 -7.8°
Maximum altitude 02:53:51 69° 102° (ESE) 857 2.9 -7.2°
Drops below altitude 10° 02:59:03 10° 186° (S) 2,361 4.6 -6.5°
Sets 03:01:23 0° 189° (S) 3,283 5.3 -6.2°
Enters shadow 03:01:27 - 189° (S) 3,310 5.3 -6.2°
